[[{"header":{"parameterUnit":"m.s-1","parameterCategory":2,"la1":30.2992,"la2":30.254,"lo1":-89.0895,"lo2":-89.0443,"dy":0.0025,"dx":0.0025,"nx":19,"ny":19,"refTime":"2026-03-12T03:00:00:Z","depth":"0","parameterNumber":2,"parameterNumberName":"U-component_of_CURRENTS"},"data":[0,0,0,0.3213,0.3215,0.3322,0.3322,0.3423,0.3424,0,0,0,0,0,0,0,0,0,0,0,0.3167,0.3168,0.3212,0.3216,0.3322,0.3322,0.3422,0.3424,0,0,0,0,0,0,0,0,0,0,0,0.3167,0.3168,0.3169,0.3216,0.3322,0.3322,0.3422,0.3348,0,0,0,0,0,0,0,0,0,0,0.3248,0.3208,0.3167,0.3169,0.3217,0.3322,0.3322,0.3345,0.3353,0.3368,0,0.339,0,0.3419,0.3431,0.3431,0,0,0,0.3204,0.3201,0.3242,0.3169,0.3218,0.3322,0.3271,0.3349,0.3358,0.3378,0.3392,0.3396,0.3421,0.3431,0.3432,0.3573,0.3574,0,0,0.3198,0.3174,0.3236,0.3247,0.3254,0.3267,0.3274,0.3355,0.336,0.3393,0.3399,0.3422,0.3432,0.3433,0.3572,0.3573,0,0,0,0.3189,0.317,0.3209,0.3243,0.3271,0.3271,0.3278,0.3356,0.3373,0.3401,0.3423,0.3433,0.3434,0.3571,0.3573,0.3644,0,0,0,0.3185,0.3166,0.3206,0.3191,0.3269,0.3319,0.3277,0.3366,0.3377,0.3423,0.3433,0.3435,0.3571,0.3572,0.364,0.3629,0,0,0,0.3161,0.3163,0.318,0.319,0.3244,0.3318,0.3339,0.3369,0.3392,0.3431,0.3435,0.357,0.3572,0.3637,0.3625,0.3763,0,0,0,0.3125,0.3158,0.318,0.3227,0.3243,0.3338,0.3338,0.3395,0.3429,0.3433,0.3571,0.3573,0.3636,0.3623,0.3759,0.3773,0.3795,0,0,0.3148,0.316,0.3191,0.3214,0.3296,0.3321,0.3424,0.3458,0.3464,0.3537,0.3541,0.3642,0.3625,0.3762,0.3878,0.3897,0,0,0,0.3187,0.3203,0.3232,0.3287,0.3358,0.3434,0.3487,0.3521,0.3594,0.3497,0.3659,0.3645,0.3731,0.373,0.3746,0.3832,0.3581,0.3581,0.3581,0.3156,0.3212,0.3261,0.3342,0.341,0.3519,0.3583,0.3643,0.3654,0.3702,0.3718,0.3881,0.3881,0.3893,0.3982,0.3757,0.3757,0.3758,0.3758,0.3174,0.3196,0.3274,0.3338,0.3439,0.3531,0.368,0.3719,0.3864,0.3809,0.3892,0.382,0.3913,0.4003,0.3763,0.3762,0.3761,0.3761,0.376,0.313,0.3149,0.3194,0.3294,0.3397,0.353,0.3681,0.3809,0.3895,0.3973,0.4044,0.4042,0.4112,0.4061,0.4062,0.4062,0.4063,0.4063,0.4064,0.3058,0.3109,0.3136,0.3253,0.3304,0.3458,0.3709,0.3842,0.4047,0.4103,0.4105,0.418,0.3974,0.3952,0.4073,0.4071,0.407,0.4069,0.4068,0.3003,0.302,0.3061,0.3101,0.3243,0.3353,0.3631,0.394,0.4133,0.4219,0.4377,0.4206,0.4192,0.4178,0.4162,0.4331,0.4331,0.4331,0.4331,0.2938,0.2961,0.2974,0.301,0.3118,0.3291,0.3486,0.381,0.4237,0.4433,0.4536,0.4471,0.4456,0.4453,0.4434,0.442,0.4651,0.4652,0.4652,0.2892,0.2913,0.2886,0.2935,0.3031,0.3194,0.3336,0.3628,0.4292,0.4674,0.4666,0.4652,0.4559,0.4529,0.4517,0.4482,0.4455,0,0]},{"header":{"parameterUnit":"m.s-1","parameterCategory":2,"la1":30.2992,"la2":30.254,"lo1":-89.0895,"lo2":-89.0443,"dy":0.0025,"dx":0.0025,"nx":19,"ny":19,"refTime":"2026-03-12T03:00:00:Z","depth":"0","parameterNumber":3,"parameterNumberName":"V-component_of_CURRENTS"},"data":[0,0,0,0.0076,0.0075,0.0029,0.0029,-0.0081,-0.0082,0,0,0,0,0,0,0,0,0,0,0,0.009,0.009,0.0076,0.0075,0.0029,0.0029,-0.008,-0.0082,0,0,0,0,0,0,0,0,0,0,0,0.009,0.009,0.009,0.0075,0.0029,0.0029,-0.008,-0.0036,0,0,0,0,0,0,0,0,0,0,0.0013,0.0038,0.009,0.009,0.0075,0.0029,0.0029,-0.0034,-0.0039,-0.007,0,-0.0068,0,-0.0072,-0.0089,-0.0089,0,0,0,0.0062,0.0042,0.0034,0.009,0.0075,0.0029,0.0046,-0.0036,-0.0042,-0.0077,-0.0069,-0.0073,-0.0074,-0.0089,-0.009,-0.0105,-0.0104,0,0,0.0064,0.0073,0.0038,0.0031,0.0073,0.0048,0.0045,-0.004,-0.0045,-0.007,-0.0076,-0.0076,-0.009,-0.0091,-0.0105,-0.0105,0,0,0,0.0081,0.0075,0.0069,0.0035,0.0033,0.0047,0.0043,-0.0042,-0.0042,-0.0077,-0.0077,-0.0091,-0.0092,-0.0106,-0.0105,0.0043,0,0,0,0.0081,0.0085,0.0071,0.0074,0.0036,0.0002,0.0043,-0.0036,-0.0045,-0.0077,-0.0091,-0.0093,-0.0107,-0.0106,0.0037,0.0118,0,0,0,0.009,0.0086,0.0085,0.0075,0.0062,0.0004,-0.0002,-0.0038,-0.0046,-0.0089,-0.0093,-0.0107,-0.0106,0.0032,0.0109,0.017,0,0,0,0.0094,0.0133,0.0086,0.0132,0.0062,0.0094,-0.0002,-0.0008,-0.0035,-0.0091,-0.0107,-0.0105,0.0031,0.0103,0.0164,0.029,0.0326,0,0,0.0156,0.014,0.0173,0.0131,0.0184,0.0098,0.0149,0.0058,-0.0025,-0.0087,-0.0088,0.0039,0.0108,0.0169,0.0378,0.0413,0,0,0,0.0202,0.0229,0.0235,0.0252,0.024,0.0252,0.0167,0.0118,0.0062,-0.0033,0.0029,0.0068,0.0101,0.0164,0.0191,0.005,-0.0098,-0.0098,-0.0098,0.0295,0.0302,0.0371,0.0386,0.0398,0.0347,0.0341,0.0261,0.0157,0.0153,0.018,0.0319,0.0389,0.041,0.0263,0.0161,0.0161,0.0162,0.0162,0.0425,0.0483,0.0491,0.0559,0.0551,0.0581,0.0513,0.0439,0.0409,0.0302,0.0326,0.0308,0.0449,0.028,0.0171,0.017,0.0169,0.0168,0.0167,0.0498,0.0535,0.057,0.0676,0.075,0.0729,0.082,0.0706,0.0559,0.0588,0.0609,0.0607,0.0464,0.0587,0.0587,0.0588,0.0589,0.0589,0.0589,0.056,0.0607,0.0706,0.0809,0.0896,0.0998,0.0998,0.0997,0.0908,0.0794,0.0793,0.051,0.0448,0.0437,0.06,0.0598,0.0597,0.0596,0.0595,0.0665,0.0677,0.0841,0.0937,0.1164,0.1391,0.1362,0.1393,0.131,0.1282,0.0849,0.0886,0.0847,0.0824,0.0821,0.1074,0.1074,0.1074,0.1074,0.0726,0.0748,0.0978,0.1169,0.1407,0.1576,0.1876,0.1853,0.1435,0.1192,0.0963,0.0874,0.086,0.0812,0.079,0.0781,0.1018,0.1017,0.1016,0.0804,0.087,0.105,0.1245,0.1524,0.1821,0.2166,0.2306,0.16,0.099,0.0743,0.0745,0.0579,0.057,0.0459,0.0439,0.041,0,0]}],[{"header":{"parameterUnit":"m.s-1","parameterCategory":2,"la1":30.2992,"la2":30.254,"lo1":-89.0895,"lo2":-89.0443,"dy":0.0025,"dx":0.0025,"nx":19,"ny":19,"refTime":"2026-03-12T03:00:00:Z","depth":"2","parameterNumber":2,"parameterNumberName":"U-component_of_CURRENTS"},"data":[0,0,0,0.3139,0.3142,0.325,0.325,0.3349,0.335,0,0,0,0,0,0,0,0,0,0,0,0.3093,0.3094,0.3139,0.3142,0.325,0.325,0.3349,0.335,0,0,0,0,0,0,0,0,0,0,0,0.3093,0.3094,0.3095,0.3142,0.325,0.325,0.3349,0.3274,0,0,0,0,0,0,0,0,0,0,0.3173,0.3134,0.3094,0.3095,0.3143,0.325,0.325,0.3271,0.3279,0.3292,0,0.3316,0,0.3344,0.3357,0.3357,0,0,0,0.313,0.3127,0.3168,0.3095,0.3144,0.325,0.3198,0.3275,0.3284,0.3303,0.3318,0.3322,0.3346,0.3357,0.3358,0.3495,0.3496,0,0,0.3124,0.3101,0.3162,0.3173,0.3181,0.3195,0.3202,0.3281,0.3287,0.3318,0.3325,0.3348,0.3358,0.3359,0.3495,0.3495,0,0,0,0.3115,0.3097,0.3136,0.3169,0.3197,0.3198,0.3206,0.3283,0.3299,0.3326,0.3349,0.3359,0.336,0.3494,0.3495,0.3567,0,0,0,0.3111,0.3093,0.3133,0.3119,0.3196,0.3246,0.3205,0.3293,0.3304,0.3348,0.3359,0.3361,0.3493,0.3494,0.3563,0.3553,0,0,0,0.3087,0.309,0.3108,0.3118,0.3172,0.3246,0.3266,0.3296,0.3318,0.3357,0.3361,0.3492,0.3494,0.356,0.3549,0.3682,0,0,0,0.3052,0.3086,0.3107,0.3155,0.3171,0.3264,0.3266,0.3322,0.3356,0.3359,0.3493,0.3495,0.3559,0.3546,0.3678,0.3669,0.3688,0,0,0.3075,0.3087,0.3117,0.314,0.3221,0.3247,0.3348,0.3383,0.3389,0.346,0.3464,0.3564,0.3549,0.3681,0.3771,0.3788,0,0,0,0.3113,0.3129,0.3157,0.3212,0.3281,0.3356,0.341,0.3444,0.3517,0.3422,0.358,0.3567,0.365,0.3636,0.3649,0.3503,0.3503,0.3503,0.3503,0.3085,0.3139,0.3186,0.3265,0.3332,0.3439,0.3503,0.3563,0.3575,0.3623,0.364,0.3799,0.3784,0.3794,0.3677,0.3678,0.3678,0.3678,0.3678,0.3102,0.3123,0.32,0.3262,0.3361,0.3452,0.3598,0.3638,0.3781,0.3729,0.3809,0.3726,0.3813,0.3684,0.3683,0.3682,0.3682,0.3681,0.3681,0.306,0.3079,0.3123,0.3221,0.3323,0.3454,0.3602,0.3729,0.3813,0.389,0.3944,0.3942,0.385,0.3977,0.3978,0.3978,0.3979,0.3979,0.3979,0.2991,0.3041,0.3068,0.3182,0.3233,0.3386,0.3632,0.3761,0.3952,0.4001,0.4003,0.39,0.389,0.3869,0.3988,0.3987,0.3985,0.3985,0.3984,0.2938,0.2955,0.2996,0.3035,0.3175,0.3251,0.3546,0.3837,0.4029,0.4105,0.4096,0.409,0.4073,0.4061,0.4044,0.4202,0.4202,0.4202,0.4202,0.2875,0.2898,0.2912,0.2947,0.305,0.3179,0.3294,0.3486,0.3795,0.3874,0.3886,0.3771,0.3773,0.373,0.3725,0.3696,0.3764,0.3762,0.3761,0.283,0.2851,0.2826,0.2873,0.2963,0.305,0.3031,0.2983,0.3293,0.3727,0.3642,0.4205,0.4069,0.4058,0.4014,0.3997,0.3961,0,0]},{"header":{"parameterUnit":"m.s-1","parameterCategory":2,"la1":30.2992,"la2":30.254,"lo1":-89.0895,"lo2":-89.0443,"dy":0.0025,"dx":0.0025,"nx":19,"ny":19,"refTime":"2026-03-12T03:00:00:Z","depth":"2","parameterNumber":3,"parameterNumberName":"V-component_of_CURRENTS"},"data":[0,0,0,0.0127,0.0126,0.0079,0.0079,-0.0029,-0.003,0,0,0,0,0,0,0,0,0,0,0,0.0141,0.0141,0.0127,0.0126,0.0079,0.0079,-0.0028,-0.003,0,0,0,0,0,0,0,0,0,0,0,0.0141,0.0141,0.0141,0.0126,0.0079,0.0079,-0.0028,0.0016,0,0,0,0,0,0,0,0,0,0,0.0066,0.009,0.0141,0.0141,0.0126,0.0079,0.0079,0.0018,0.0013,-0.0017,0,-0.0015,0,-0.002,-0.0037,-0.0037,0,0,0,0.0113,0.0094,0.0086,0.0141,0.0126,0.0079,0.0097,0.0016,0.001,-0.0024,-0.0017,-0.002,-0.0022,-0.0037,-0.0038,-0.0051,-0.0051,0,0,0.0115,0.0124,0.009,0.0082,0.0123,0.0098,0.0095,0.0012,0.0007,-0.0017,-0.0023,-0.0023,-0.0038,-0.0039,-0.0052,-0.0051,0,0,0,0.0132,0.0126,0.012,0.0086,0.0085,0.0097,0.0094,0.001,0.001,-0.0024,-0.0025,-0.0039,-0.004,-0.0053,-0.0052,0.0093,0,0,0,0.0133,0.0137,0.0121,0.0125,0.0087,0.0053,0.0093,0.0015,0.0006,-0.0024,-0.0039,-0.0041,-0.0053,-0.0052,0.0088,0.0168,0,0,0,0.0142,0.0137,0.0136,0.0126,0.0112,0.0055,0.0049,0.0013,0.0006,-0.0037,-0.0041,-0.0054,-0.0052,0.0083,0.0159,0.0217,0,0,0,0.0145,0.0184,0.0137,0.0182,0.0113,0.0144,0.0049,0.0043,0.0017,-0.0039,-0.0053,-0.0052,0.0081,0.0153,0.0212,0.0327,0.0361,0,0,0.0207,0.0191,0.0223,0.0181,0.0234,0.0149,0.0199,0.0109,0.0027,-0.0034,-0.0034,0.009,0.0158,0.0216,0.0414,0.0447,0,0,0,0.0253,0.0279,0.0285,0.0301,0.029,0.0301,0.0217,0.0168,0.0113,0.0019,0.008,0.0118,0.015,0.0207,0.0233,-0.0044,-0.0045,-0.0045,-0.0045,0.0343,0.0351,0.042,0.0434,0.0447,0.0395,0.0389,0.0309,0.0207,0.0203,0.0229,0.0364,0.0428,0.0448,0.0209,0.021,0.021,0.0211,0.0211,0.0472,0.0529,0.0538,0.0605,0.0597,0.0626,0.0558,0.0485,0.0454,0.0349,0.0372,0.0349,0.0485,0.0222,0.022,0.0219,0.0217,0.0217,0.0216,0.0544,0.0581,0.0615,0.072,0.0793,0.0772,0.086,0.0747,0.0601,0.0629,0.0643,0.0641,0.0457,0.0627,0.0627,0.0628,0.0628,0.0629,0.0629,0.0604,0.0651,0.0749,0.0851,0.0937,0.1037,0.1035,0.1033,0.0939,0.0823,0.0823,0.0504,0.049,0.0479,0.0639,0.0637,0.0636,0.0635,0.0635,0.0708,0.0719,0.0882,0.0977,0.1202,0.1412,0.139,0.1412,0.133,0.1298,0.0919,0.0909,0.087,0.0848,0.0845,0.109,0.109,0.109,0.109,0.0768,0.0789,0.1017,0.1206,0.1441,0.1591,0.1839,0.1753,0.1474,0.1263,0.1254,0.119,0.1169,0.1139,0.111,0.1108,0.1422,0.1423,0.1423,0.0845,0.0911,0.1088,0.1281,0.1557,0.182,0.2065,0.1969,0.1545,0.143,0.1249,0.1124,0.1004,0.0981,0.0904,0.0871,0.0854,0,0]}],[{"header":{"parameterUnit":"m.s-1","parameterCategory":2,"la1":30.2992,"la2":30.254,"lo1":-89.0895,"lo2":-89.0443,"dy":0.0025,"dx":0.0025,"nx":19,"ny":19,"refTime":"2026-03-12T03:00:00:Z","depth":"4","parameterNumber":2,"parameterNumberName":"U-component_of_CURRENTS"},"data":[0,0,0,0.2017,0.2022,0.2263,0.2263,0.2467,0.2468,0,0,0,0,0,0,0,0,0,0,0,0.1942,0.1944,0.2016,0.2022,0.2262,0.2264,0.2466,0.2468,0,0,0,0,0,0,0,0,0,0,0,0.1941,0.1944,0.1946,0.2023,0.2262,0.2264,0.2466,0.2311,0,0,0,0,0,0,0,0,0,0,0.2091,0.2041,0.1943,0.1946,0.2025,0.2262,0.2264,0.2305,0.2321,0.2327,0,0.238,0,0.2423,0.2479,0.248,0,0,0,0.2025,0.2028,0.2087,0.1946,0.2027,0.2262,0.2155,0.2315,0.2332,0.2347,0.2383,0.2391,0.2426,0.248,0.2481,0.2676,0.2677,0,0,0.2012,0.1988,0.2075,0.2099,0.2108,0.2147,0.2162,0.2327,0.2353,0.2384,0.2397,0.243,0.2481,0.2482,0.2675,0.2676,0,0,0,0.1972,0.1978,0.2037,0.2089,0.2139,0.2154,0.2172,0.2347,0.2366,0.2399,0.2432,0.2482,0.2484,0.2674,0.2675,0.2752,0,0,0,0.1964,0.1955,0.2031,0.2019,0.2137,0.2261,0.2187,0.2355,0.2375,0.2431,0.2482,0.2486,0.2673,0.2675,0.2748,0.2743,0,0,0,0.1928,0.1951,0.1983,0.2017,0.2119,0.226,0.229,0.2361,0.2394,0.248,0.2486,0.2672,0.2674,0.2744,0.2738,0.2852,0,0,0,0.1886,0.1938,0.1984,0.2058,0.2116,0.2255,0.2289,0.2408,0.2484,0.2483,0.2673,0.2675,0.2743,0.2735,0.2848,0.2469,0,0,0,0.1915,0.1941,0.1982,0.2028,0.2143,0.2221,0.2367,0.2481,0.2517,0.2609,0.2616,0.2749,0.2738,0.2851,0.26,0,0,0,0,0.1966,0.1997,0.2039,0.2129,0.2232,0.2361,0.2479,0.2541,0.2678,0.2574,0.2772,0.2762,0.2831,0.2599,0.2686,0.2685,0.2685,0.2685,0.2685,0.1945,0.2012,0.2087,0.2193,0.2297,0.2473,0.2579,0.269,0.2727,0.2808,0.2843,0.2998,0.2755,0.2883,0.2884,0.2884,0.2884,0.2885,0.2885,0.1961,0.1991,0.2113,0.2214,0.2363,0.251,0.2704,0.2779,0.2961,0.2934,0.3001,0.2715,0.2893,0.2891,0.289,0.2889,0.2889,0.2888,0.2888,0.1907,0.1929,0.2025,0.2182,0.2358,0.2548,0.2717,0.2891,0.3008,0.309,0.2906,0.3065,0.304,0.3174,0.3174,0.3175,0.3175,0.3176,0.3176,0.1799,0.1889,0.1966,0.2152,0.226,0.2465,0.2762,0.2872,0.3051,0.2934,0.3143,0.3096,0.3086,0.3058,0.3184,0.3182,0.3181,0.3181,0.318,0.1705,0.1765,0.1856,0.1954,0.2183,0.2305,0.2626,0.2765,0.2881,0.286,0.2864,0.2878,0.2819,0.2817,0.2776,0.2824,0.282,0.2815,0,0.1617,0.166,0.1748,0.1842,0.196,0.2187,0.2248,0.2434,0.2597,0.25,0.288,0.288,0.2888,0.2815,0.2807,0.2753,0,0,0,0.1551,0.1594,0.1611,0.1727,0.1829,0.2,0.2253,0.2235,0.2562,0.2554,0.2705,0.2734,0.2999,0.3208,0.3151,0.3139,0.3091,0,0]},{"header":{"parameterUnit":"m.s-1","parameterCategory":2,"la1":30.2992,"la2":30.254,"lo1":-89.0895,"lo2":-89.0443,"dy":0.0025,"dx":0.0025,"nx":19,"ny":19,"refTime":"2026-03-12T03:00:00:Z","depth":"4","parameterNumber":3,"parameterNumberName":"V-component_of_CURRENTS"},"data":[0,0,0,0.0245,0.0244,0.0208,0.0207,0.0113,0.0112,0,0,0,0,0,0,0,0,0,0,0,0.0257,0.0257,0.0245,0.0244,0.0208,0.0207,0.0113,0.0112,0,0,0,0,0,0,0,0,0,0,0,0.0257,0.0257,0.0257,0.0244,0.0208,0.0207,0.0113,0.015,0,0,0,0,0,0,0,0,0,0,0.0191,0.0212,0.0257,0.0257,0.0244,0.0208,0.0207,0.0152,0.0148,0.012,0,0.0123,0,0.0119,0.0106,0.0106,0,0,0,0.0233,0.0216,0.0209,0.0257,0.0244,0.0208,0.0221,0.015,0.0145,0.0114,0.0122,0.0118,0.0118,0.0105,0.0105,0.008,0.008,0,0,0.0235,0.0243,0.0213,0.0206,0.0244,0.0222,0.022,0.0147,0.0143,0.0121,0.0116,0.0116,0.0105,0.0104,0.0079,0.008,0,0,0,0.0248,0.0245,0.024,0.021,0.0209,0.0222,0.0219,0.0146,0.0146,0.0115,0.0115,0.0104,0.0103,0.0079,0.0079,0.0194,0,0,0,0.0249,0.0253,0.0241,0.0244,0.0211,0.0184,0.022,0.0151,0.0143,0.0116,0.0104,0.0102,0.0078,0.0079,0.019,0.0258,0,0,0,0.0257,0.0254,0.0254,0.0245,0.0235,0.0185,0.018,0.0149,0.0143,0.0106,0.0102,0.0078,0.0079,0.0186,0.025,0.0282,0,0,0,0.026,0.0287,0.0254,0.0287,0.0236,0.0255,0.0181,0.0172,0.0149,0.0104,0.0078,0.0079,0.0185,0.0246,0.0278,0.0316,0,0,0,0.0303,0.0292,0.0315,0.0285,0.0322,0.0258,0.0289,0.0216,0.0152,0.0095,0.0095,0.0191,0.025,0.0281,0.0374,0,0,0,0,0.0335,0.0355,0.0358,0.0371,0.0361,0.0366,0.0299,0.0259,0.0211,0.0144,0.018,0.0213,0.0229,0.0238,0.0084,0.0084,0.0084,0.0084,0.0084,0.0402,0.0407,0.0457,0.0467,0.0475,0.0432,0.0423,0.0357,0.0279,0.0274,0.0298,0.0391,0.0404,0.0275,0.0276,0.0276,0.0277,0.0277,0.0277,0.0491,0.0531,0.0543,0.0595,0.0589,0.061,0.0549,0.0493,0.0461,0.0386,0.0395,0.0348,0.0288,0.0286,0.0285,0.0283,0.0282,0.0282,0.0281,0.0541,0.0566,0.06,0.0684,0.0744,0.0729,0.0783,0.0699,0.0581,0.0597,0.0567,0.0463,0.0462,0.0589,0.0589,0.059,0.059,0.059,0.0591,0.0576,0.0616,0.0697,0.0783,0.0856,0.0933,0.0924,0.0903,0.0781,0.0714,0.0629,0.0495,0.0485,0.0479,0.0598,0.0596,0.0596,0.0595,0.0594,0.0639,0.0657,0.0784,0.0866,0.1042,0.1102,0.1108,0.1035,0.101,0.092,0.0753,0.0743,0.0702,0.0687,0.0686,0.0871,0.0872,0.0873,0,0.0675,0.0695,0.0869,0.1017,0.1166,0.1207,0.1227,0.1182,0.1005,0.0988,0.0968,0.0782,0.0773,0.0727,0.0714,0.0716,0,0,0,0.0721,0.0774,0.0903,0.1055,0.1222,0.1241,0.1238,0.1197,0.1038,0.1009,0.0897,0.0891,0.0771,0.0619,0.0531,0.0519,0.0505,0,0]}]]